User: anonymous   Login
Location: Unspecified
(0.0000°N, 0.0000°E)
Time: 09:25:21
(UTC+00:00)
Language:

NATO 4A - Orbit

View from above orbital plane
View from above orbital plane
View from above satellite
View from above satellite

Ground track
Ground track

The orbit data is extracted from the following two-line orbital elements,

1 21047U 91001A   19083.22512154 -.00000113  00000-0  00000+0 0  9993
2 21047  13.2665  11.7453 0001754 316.9515 225.2999  0.98283216102186
Epoch (UTC): 24 March 2019 05:24:10
Eccentricity: 0.0001754
inclination: 13.2665°
perigee height: 36345 km
apogee height: 36360 km
right ascension of ascending node: 11.7453°
argument of perigee: 316.9515°
revolutions per day: 0.98283216
mean anomaly at epoch: 225.2999°
orbit number at epoch: 10218

The dashed part of the orbit path shows where the satellite is in the earth's shadow,  

DLR